Theta_e
325 325 325 325 326 326 325 324 324 322 322 321 321 321 320 320 319 319 319 316 317 316 316 317 325 334 338 338 337 337 337 336 338 340 338 335 333 336 337 336 335 333 332
324 323 323 324 326 325 325 325 324 323 322 322 322 322 321 321 320 320 319 318 315 316 315 315 317 322 334 336 335 335 337 336 335 337 340 339 336 333 336 337 335 334 333
314 313 318 318 319 318 319 321 323 324 324 323 321 320 320 320 321 321 320 319 319 318 316 315 315 318 328 330 329 330 332 334 333 333 335 339 340 338 335 336 336 335 334
314 314 316 317 317 317 317 317 317 320 322 322 321 321 320 320 319 319 318 318 318 318 318 317 315 316 323 324 325 325 331 331 332 331 333 335 336 337 337 336 336 336 335
315 315 317 317 316 316 316 316 316 317 317 318 319 319 320 319 318 316 316 316 316 317 318 318 314 319 323 327 324 327 331 333 333 332 331 331 332 334 335 336 336 330 337
317 317 318 317 315 315 314 314 315 316 317 317 317 316 317 317 316 314 314 314 315 317 318 320 322 323 325 324 324 324 325 331 332 332 332 332 333 333 334 335 336 335 336
317 317 317 316 315 314 314 313 314 315 316 319 319 318 318 316 314 313 314 315 318 319 323 323 323 324 324 322 322 325 327 329 327 328 330 331 334 333 334 335 335 336 336
317 317 316 315 314 313 313 313 313 315 315 316 317 317 318 315 313 315 315 315 318 318 323 323 323 322 324 324 322 321 323 325 326 324 325 328 330 331 333 335 334 335 335
317 315 315 314 314 313 312 312 312 314 314 315 315 315 317 316 314 313 314 316 314 320 320 320 320 322 324 325 327 329 326 327 331 331 326 324 327 328 331 332 335 335 335
314 313 314 314 313 313 312 311 311 311 313 313 313 314 314 313 314 315 313 314 314 316 319 319 318 322 324 326 328 325 328 330 330 328 327 324 322 323 327 333 335 335 335
315 314 313 312 311 311 310 309 309 309 313 312 313 311 312 313 312 313 315 314 315 314 316 318 318 322 322 326 327 324 325 325 320 322 322 324 325 322 326 332 333 336 334
313 311 310 310 310 308 308 308 308 309 312 311 310 310 311 312 313 312 315 314 314 314 316 317 319 319 320 321 324 320 320 320 323 327 326 328 329 328 331 336 335 334 330
310 309 310 310 309 309 308 308 308 308 309 310 309 309 309 309 310 311 311 312 313 313 316 316 317 318 320 321 321 322 321 321 323 325 326 328 332 332 331 331 328 324 323
308 309 309 309 309 309 309 309 310 310 309 308 308 308 308 308 308 309 310 311 312 311 313 316 316 318 318 318 319 320 319 321 321 323 322 321 321 320 319 319 321 320 318
309 309 309 309 309 309 308 308 309 308 307 307 308 308 308 307 307 308 309 309 310 312 313 313 315 317 317 316 315 316 315 315 317 320 320 321 320 320 319 318 317 315 315
310 310 309 308 310 310 308 307 308 308 307 308 308 308 308 307 307 307 308 309 309 310 313 313 314 314 314 313 312 312 312 312 311 311 312 314 315 314 313 313 313 313 311
311 309 308 308 308 308 308 308 307 307 307 307 308 308 307 307 308 308 309 308 309 309 312 313 313 312 311 310 309 309 309 308 308 308 308 308 309 309 309 309 308 308 308
310 308 308 308 308 308 308 307 309 309 307 308 308 307 308 309 310 310 309 309 309 310 311 312 309 308 307 307 306 306 306 305 305 304 306 307 306 307 306 306 306 305 305
309 308 308 308 308 308 308 308 307 308 308 308 309 309 310 310 310 310 311 310 310 311 311 309 307 306 305 305 306 305 305 304 303 303 302 302 303 303 304 303 303 302 303
308 308 308 308 308 308 307 307 308 309 309 309 310 310 309 309 309 310 311 312 310 312 308 307 306 305 304 303 303 303 300 299 301 302 301 301 301 301 301 301 300 301 301
307 308 308 308 308 307 308 307 308 309 309 308 309 309 310 312 312 312 313 312 311 309 307 306 305 305 303 302 302 298 297 297 297 297 298 298 299 299 299 300 299 299 299
307 308 308 309 308 307 307 307 307 308 308 308 309 309 309 311 313 313 313 312 311 308 307 306 306 304 303 302 298 298 298 298 299 298 298 298 298 297 296 297 298 298 298
306 307 308 308 307 309 306 306 306 309 309 309 309 309 307 313 312 312 312 310 308 308 308 306 305 303 301 298 297 298 299 301 300 299 298 298 297 297 295 296 297 297 298
306 307 308 308 307 307 307 308 308 310 309 309 309 310 309 312 312 311 310 308 308 307 307 306 305 302 301 298 301 302 301 300 300 300 300 299 297 297 297 295 297 297 298
306 307 307 306 308 308 307 308 309 310 311 310 309 309 311 313 312 312 311 309 308 307 307 306 306 304 302 304 303 301 302 303 303 302 300 300 299 298 298 297 294 295 297
306 307 307 306 306 308 308 309 309 309 310 312 311 309 308 311 312 313 312 310 310 308 307 306 305 305 303 304 300 301 303 305 303 303 303 301 301 300 300 297 296 296 294
Wind_Speed
10 12 13 13 14 14 13 13 14 14 13 12 12 12 12 12 12 12 12 13 12 12 14 15 15 14 13 14 19 22 22 26 26 27 28 29 27 25 23 22 21 20 19
12 12 12 12 11 11 12 12 13 14 14 13 13 12 12 12 12 12 13 13 14 15 17 18 18 17 14 12 14 18 21 20 24 27 29 31 30 27 27 25 24 23 22
13 14 11 10 11 13 14 14 14 13 12 12 13 13 13 13 12 12 14 14 17 17 21 22 22 21 16 14 12 14 20 24 23 26 27 30 32 30 31 28 26 24 24
13 15 13 12 15 16 16 17 17 18 18 17 17 16 16 15 14 14 15 16 19 20 22 24 24 22 16 15 17 15 17 22 22 22 25 27 29 30 32 28 28 25 26
12 12 11 13 17 17 18 18 18 16 20 21 21 21 19 17 16 16 17 19 22 23 23 25 24 18 16 15 11 12 14 16 20 20 22 23 26 29 29 31 29 29 28
9 11 10 13 17 18 19 18 19 19 18 19 21 23 21 18 15 17 18 20 20 21 21 20 16 15 14 14 13 11 12 15 20 17 18 18 23 27 31 32 31 31 29
11 14 12 14 16 16 17 18 19 17 16 12 13 15 14 12 14 19 16 11 12 11 15 11 11 10 12 15 14 13 12 12 14 14 22 13 18 23 28 30 28 29 27
14 12 14 16 15 17 17 18 17 17 16 13 10 12 8 11 14 8 11 11 8 9 8 7 7 8 5 7 10 14 14 10 13 14 14 21 16 16 23 29 24 31 32
15 16 15 15 14 15 18 19 19 17 18 15 11 9 6 8 10 9 8 5 9 6 5 5 6 2 4 6 5 6 9 8 7 10 14 20 22 14 20 24 27 27 28
17 17 14 15 17 18 20 21 19 20 17 14 9 9 9 8 5 6 6 6 6 6 4 4 3 3 4 3 3 4 1 6 6 9 13 14 13 19 21 25 24 20 21
15 15 17 21 20 19 20 22 21 20 18 15 9 7 6 8 9 8 9 7 5 4 6 5 3 3 3 3 3 3 1 3 2 0 3 9 16 11 23 25 22 19 19
19 20 20 17 16 19 20 20 19 19 16 13 12 12 12 9 6 7 6 10 9 8 5 2 1 1 2 2 2 2 4 5 6 10 5 3 9 18 20 18 19 21 30
21 19 17 18 19 18 18 18 20 18 18 17 15 16 16 20 19 15 11 9 6 7 5 5 3 3 3 3 3 3 2 6 10 18 27 28 26 35 36 32 37 37 35
18 18 20 21 20 17 15 17 15 15 14 20 22 22 22 21 21 20 17 9 3 4 8 8 6 6 7 8 8 11 12 12 11 18 23 27 30 31 30 31 32 34 33
19 18 20 19 18 14 15 15 13 15 16 17 17 16 17 17 17 19 18 13 6 2 7 9 4 12 16 15 17 19 19 22 25 25 29 32 34 35 34 35 35 34 31
18 17 20 16 15 14 14 13 12 13 14 14 14 14 14 14 15 15 14 15 17 10 4 9 4 18 22 22 20 22 22 22 23 27 30 30 30 29 28 27 27 23 22
18 20 19 15 14 15 13 12 13 11 13 12 12 12 13 14 13 12 13 16 16 18 8 1 13 23 27 27 26 27 25 25 24 24 24 27 28 27 26 24 26 26 24
19 19 17 16 14 13 11 11 11 9 11 14 9 11 11 10 10 10 11 13 15 15 7 4 14 19 26 29 29 30 26 28 27 23 22 22 23 22 20 20 20 20 20
17 17 15 14 12 11 11 9 9 11 10 9 10 11 10 10 11 11 12 14 15 14 13 16 15 24 25 27 27 27 25 28 27 25 25 25 23 21 19 18 18 19 20
18 16 13 12 11 10 9 8 8 9 8 9 9 10 12 13 14 13 14 13 14 13 28 22 24 23 26 23 22 23 25 27 24 26 26 27 27 26 23 23 20 20 21
16 13 11 10 9 8 7 8 6 7 9 11 11 10 10 11 2 10 15 14 20 27 24 23 21 22 23 21 16 20 27 27 26 24 22 20 20 21 19 20 21 21 21
15 12 10 8 8 7 8 6 6 7 9 10 11 10 13 11 9 16 16 25 27 30 26 23 22 21 20 24 23 21 25 20 18 16 21 22 20 23 19 17 17 18 20
14 12 9 7 6 6 7 6 7 7 8 8 10 11 14 15 21 24 23 25 27 29 32 31 25 25 28 32 31 22 13 15 20 18 20 23 19 23 20 19 15 17 18
11 9 7 6 6 7 9 8 8 6 7 8 8 11 14 16 21 25 26 27 26 26 26 28 29 30 33 33 21 15 20 23 19 18 16 20 16 19 19 21 20 18 16
10 7 6 7 7 9 10 9 9 7 7 9 9 10 10 13 18 22 27 27 25 23 24 26 22 27 29 19 17 23 18 19 17 15 14 17 15 18 17 17 17 17 14
8 6 9 8 9 10 10 9 8 7 7 8 9 10 11 13 16 20 23 27 25 26 24 26 24 24 23 18 20 14 12 15 17 13 9 14 14 12 15 14 13 12 14
Wind_Direction
339 334 326 322 314 305 299 292 285 277 271 263 266 265 266 274 269 280 280 281 291 304 310 310 299 306 300 276 257 251 245 242 243 240 239 237 234 225 220 212 213 209 205
344 337 332 324 319 317 312 306 295 285 274 267 267 267 273 271 270 268 272 274 276 296 301 307 301 289 291 291 276 260 242 243 244 243 240 237 234 233 226 217 213 214 208
337 334 327 318 318 319 316 308 302 296 285 273 267 269 273 274 272 276 280 274 277 283 293 294 297 289 275 277 282 264 250 242 248 248 245 239 235 232 230 227 219 218 214
337 338 331 324 324 324 319 309 300 289 283 277 275 275 277 275 276 283 283 284 280 277 281 289 290 283 267 261 266 261 254 244 246 250 247 245 242 238 236 234 224 221 219
332 332 323 322 327 323 318 313 306 298 285 276 273 274 274 274 277 283 285 285 280 276 273 275 274 260 259 254 261 250 243 233 235 242 242 247 247 245 240 233 230 221 216
329 332 323 322 323 319 315 314 310 299 291 286 279 275 273 274 275 290 290 289 278 269 263 261 256 250 250 257 259 263 261 245 236 240 238 238 252 248 239 234 230 225 214
330 326 322 322 321 317 317 319 310 308 306 297 281 270 271 266 287 296 289 300 278 279 259 252 236 242 257 260 263 259 256 256 257 256 254 238 259 250 240 235 230 231 224
324 322 316 317 313 315 316 323 313 299 293 286 288 292 279 279 290 307 289 294 291 299 249 209 220 233 260 273 270 265 263 261 247 245 251 259 258 255 240 231 226 232 220
316 314 312 311 307 304 307 315 314 298 290 283 273 278 285 284 320 295 309 285 344 317 281 247 230 263 297 304 315 316 281 261 248 241 226 226 244 255 253 234 230 225 224
315 317 314 312 311 304 298 304 302 300 281 274 290 265 259 271 299 295 295 312 322 331 333 297 301 333 353 348 334 352 1 179 229 253 257 247 248 246 273 246 231 224 223
316 317 316 312 309 304 303 305 306 304 280 267 265 275 274 262 261 263 287 300 317 345 327 308 318 339 340 20 35 41 110 107 123 27 290 258 237 208 250 247 225 206 200
317 317 315 311 305 304 304 305 303 302 281 262 266 270 263 267 276 249 274 281 290 301 311 297 356 358 341 169 142 67 99 87 87 80 110 172 201 198 211 185 181 162 141
317 314 309 308 305 301 303 304 301 291 280 280 282 277 272 264 261 258 244 264 271 292 274 224 191 137 138 140 95 120 135 86 100 103 100 98 114 118 114 120 117 109 111
314 304 311 311 306 302 295 303 296 285 276 288 290 284 274 267 265 257 244 217 198 245 272 249 169 138 113 106 125 118 107 128 128 115 109 105 105 109 114 112 114 114 110
306 304 308 309 307 300 303 307 297 295 297 295 287 284 276 270 270 264 246 213 187 197 252 239 157 147 139 126 113 114 102 97 104 118 113 115 115 116 113 113 114 114 120
307 307 312 313 312 309 310 311 304 303 303 300 291 283 277 276 275 264 253 238 225 219 269 206 125 129 127 115 106 106 99 90 84 85 94 105 110 108 104 104 111 113 111
310 311 315 314 313 313 317 313 308 307 312 303 292 286 285 283 274 264 246 228 220 216 233 55 120 124 123 118 112 105 100 95 87 87 88 93 96 96 98 102 101 106 113
313 313 313 314 313 312 314 314 314 318 310 303 296 294 288 280 257 242 234 231 226 226 209 205 107 106 110 115 111 101 93 92 89 84 96 96 100 103 104 104 109 112 113
313 316 317 316 316 317 315 313 316 329 313 314 307 300 291 277 268 248 221 223 220 221 198 136 120 108 106 108 103 100 97 90 86 84 84 87 91 91 99 113 113 117 118
318 318 319 318 318 316 321 329 326 323 328 321 312 301 293 280 267 255 238 222 227 172 131 119 118 115 110 108 103 109 96 98 95 95 90 87 86 84 84 90 95 104 104
327 321 315 322 321 323 338 344 334 330 340 341 337 323 308 320 254 270 191 186 154 131 128 125 121 118 117 110 101 106 102 97 88 88 90 83 85 80 77 79 85 94 100
331 326 326 326 330 340 350 4 352 342 351 351 354 11 28 8 66 127 139 150 151 135 131 130 126 125 121 114 119 113 117 116 102 91 95 84 83 75 71 74 99 101 95
335 327 332 348 1 25 15 18 353 357 6 16 27 32 39 79 86 119 135 135 136 142 150 141 129 133 128 135 132 122 106 108 110 115 97 88 79 77 67 68 91 114 107
334 345 15 37 45 42 33 21 8 25 30 39 59 49 48 103 98 111 112 119 123 132 139 143 138 138 141 144 135 134 127 117 112 109 102 95 91 85 76 65 81 109 110
346 17 44 51 44 31 29 38 29 59 47 47 60 68 67 94 111 113 113 116 109 123 139 132 129 141 141 135 136 131 129 123 116 109 114 104 108 98 87 82 77 89 99
357 69 68 52 45 39 43 50 54 63 52 52 62 72 85 104 128 124 125 125 120 122 131 127 129 135 141 134 137 137 127 118 121 114 118 116 124 115 87 77 86 85 79